Showing default

BILSAT 1, 27943

Orbit data source: Space-Track

BILSAT 1, 27943 is a payload satellite owned by TUBITAK-BILTEN (TR) in SSO that was launched on Sat, 27 Sep 2003 UTC via a KOSMOS 11K65M launch vehicle from the Plesetsk Missile And Space Complex (PKMTR). Payload-class satellites include a variety of spacecraft equipped with specific instruments for various scientific and technological missions. These include communications satellites like Starlink; space stations such as the ISS; scientific satellites like the Hubble; Earth observation satellites from companies like Planet Labs, Umbra, and HawkEye 360; GPS; miniature CubeSats for education and research; and military/defense satellites.

Loading next visibility...
Identifier
27943, 2003-042E
Orbit
SSO
Country
Flag of TRTR / TURK
Related business
Manufacturer
SSTL
Mission
Civil Imaging
Bus & Motor
SSTL-100, Unknown motor
Mass
100 kg wet, 100 kg dry
Launch date (UTC)
2003-09-27 (23 years ago)
Launch vehicle
KOSMOS 11K65M
Launch site
Plesetsk Missile And Space Complex (PKMTR)
Object type
Payload
Rocket body
Debris
Shape & HBR
Box + 1 Arm, 3.3 m
Radar Cross Section
0.540 m², Medium (>0.1 m² and < 1m²)

Expand to show TLE details & history
Last TLE update: 17 hours ago

TLE from 17 hours ago
0 BILSAT 1
1 27943U 03042E   26123.93503640  .00000363  00000-0  73929-4 0  9994
2 27943  98.3942 293.0999 0011839 126.0721 234.1580 14.67029837207632
Epoch: 2026-05-03T22:26Z
TLE epoch observation values (Epoch: 2026-05-03T22:26:27.144Z)
Latitude
-0.00012°
Longitude
94.65536°
Altitude
678.449 km
Speed
7.515 km/s
True Right ascension
19h 32m 23s
True Declination
0° 00' 00"
Sunlit
Object was in daylight at epoch
Visualization orbit readout
Latitude
Unknown
Longitude
Unknown
Altitude
Unknown
Speed
Unknown
Apparent Right ascension
Unknown
Apparent Declination
Unknown
Sunlit
N/A
Visualization observer readout
Local Sidereal Time
23:27:28
Azimuth
Unknown
Elevation
Unknown
Doppler factor
Unknown
Orbital elements
Apogee altitude
675.988 km
Perigee altitude
659.305 km
Semi-major axis
7,045.784 km
Eccentricity
0.00118
Inclination
98.3942°
RAAN
293.0999°
Arg. of periapsis
126.0721°
True anomaly
234.04812°
Mean anomaly
234.158°
Eccentric anomaly
234.10305°
Mean motion
3.66986 °/min
Orbital period
98.1 mins
BSTAR
0.000073929
Loading maneuver chart data...
Computing Atmospheric mass density...
Loading historical data...
Loading historical data...
Loading historical data...
Loading historical data...
Loading historical data...
Loading historical data...
Loading historical data...

Documentation

Showing up to 5 results
|